When you browse on this site, cookies collect data to enhance your experience and personalize the content and advertising you see.
Visit our Privacy Policy to learn more. By continuing to use the site, you agree to this use of cookies and data.
  • In Czech Republic
  • List of Countries
  • For 7 days
  • Water Temperature
  • Weather Map
  • Weather Widgets
  • user-avatar
    Login

    Hourly Weather Córdoba

    Today, 13 December, Friday

    Time Temperature Precipitation Wind Pressure Humidity
    00:00 +20°C° 0 mm 1 mps 724 mmHg 18%
    01:00 +19°C° 0 mm 1 mps 723 mmHg 19%
    02:00 +19°C° 0 mm 1 mps 723 mmHg 19%
    03:00 +19°C° 0 mm 1 mps 723 mmHg 20%
    04:00 +18°C° 0 mm 1 mps 723 mmHg 20%
    05:00 +18°C° 0 mm 1 mps 722 mmHg 20%
    06:00 +19°C° 0 mm 2 mps 723 mmHg 19%
    07:00 +21°C° 0 mm 4 mps 723 mmHg 18%
    08:00 +25°C° 0 mm 5 mps 724 mmHg 17%
    09:00 +26°C° 0 mm 5 mps 724 mmHg 15%
    10:00 +28°C° 0 mm 6 mps 723 mmHg 14%
    11:00 +30°C° 0 mm 7 mps 723 mmHg 12%
    12:00 +30°C° 0 mm 7 mps 722 mmHg 13%
    13:00 +32°C° 0 mm 7 mps 722 mmHg 13%
    14:00 +33°C° 0 mm 7 mps 721 mmHg 14%
    15:00 +32°C° 0 mm 7 mps 720 mmHg 16%
    16:00 +32°C° 0 mm 6 mps 720 mmHg 18%
    17:00 +32°C° 0 mm 6 mps 719 mmHg 20%
    18:00 +29°C° 0 mm 5 mps 719 mmHg 24%
    19:00 +27°C° 0 mm 4 mps 720 mmHg 28%
    20:00 +25°C° 0 mm 3 mps 720 mmHg 32%
    21:00 +24°C° 0 mm 2 mps 720 mmHg 34%
    22:00 +23°C° 0 mm 2 mps 721 mmHg 36%
    23:00 +23°C° 0 mm 2 mps 721 mmHg 38%

    Tomorrow, 14 December, Saturday

    Time Temperature Precipitation Wind Pressure Humidity
    00:00 +23°C° 0 mm 2 mps 721 mmHg 40%
    01:00 +23°C° 0 mm 2 mps 720 mmHg 42%
    02:00 +23°C° 0 mm 1 mps 720 mmHg 44%
    03:00 +23°C° 0 mm 2 mps 720 mmHg 45%
    04:00 +23°C° 0 mm 2 mps 720 mmHg 45%
    05:00 +23°C° 0 mm 2 mps 720 mmHg 45%
    06:00 +24°C° 0 mm 3 mps 720 mmHg 44%
    07:00 +25°C° 0 mm 3 mps 721 mmHg 42%
    08:00 +26°C° 0 mm 4 mps 721 mmHg 40%
    09:00 +28°C° 0 mm 4 mps 721 mmHg 40%
    10:00 +29°C° 0 mm 4 mps 721 mmHg 39%
    11:00 +30°C° 0 mm 5 mps 721 mmHg 39%
    12:00 +32°C° 0.1 mm 4 mps 720 mmHg 40%
    13:00 +32°C° 0.1 mm 4 mps 720 mmHg 42%
    14:00 +32°C° 0.1 mm 4 mps 719 mmHg 44%
    15:00 +32°C° 0 mm 4 mps 718 mmHg 47%
    16:00 +30°C° 0 mm 4 mps 718 mmHg 49%
    17:00 +30°C° 0 mm 4 mps 717 mmHg 52%
    18:00 +28°C° 0 mm 3 mps 718 mmHg 59%
    19:00 +27°C° 0 mm 2 mps 718 mmHg 66%
    20:00 +25°C° 0 mm 1 mps 718 mmHg 74%
    21:00 +24°C° 0.2 mm 1 mps 718 mmHg 77%
    22:00 +24°C° 0.2 mm 1 mps 719 mmHg 80%
    23:00 +23°C° 0.2 mm 1 mps 719 mmHg 84%

    Day after tomorrow, 15 December, Sunday

    Time Temperature Precipitation Wind Pressure Humidity
    00:00 +23°C° 0.9 mm 1 mps 719 mmHg 85%
    01:00 +23°C° 0.9 mm 1 mps 719 mmHg 87%
    02:00 +22°C° 0.9 mm 1 mps 719 mmHg 88%
    03:00 +21°C° 0.1 mm 2 mps 719 mmHg 87%
    04:00 +20°C° 0.1 mm 3 mps 719 mmHg 86%
    05:00 +20°C° 0.1 mm 4 mps 720 mmHg 85%
    06:00 +21°C° 0 mm 5 mps 720 mmHg 75%
    07:00 +23°C° 0 mm 5 mps 721 mmHg 65%
    08:00 +24°C° 0 mm 6 mps 721 mmHg 54%
    09:00 +27°C° 0 mm 6 mps 722 mmHg 45%
    10:00 +30°C° 0 mm 6 mps 722 mmHg 36%
    11:00 +33°C° 0 mm 6 mps 722 mmHg 27%
    12:00 +34°C° 0 mm 6 mps 722 mmHg 24%
    13:00 +34°C° 0 mm 6 mps 721 mmHg 21%
    14:00 +35°C° 0 mm 6 mps 721 mmHg 18%
    15:00 +35°C° 0 mm 5 mps 720 mmHg 18%
    16:00 +35°C° 0 mm 5 mps 719 mmHg 18%
    17:00 +34°C° 0 mm 4 mps 719 mmHg 18%
    18:00 +31°C° 0 mm 3 mps 719 mmHg 20%
    19:00 +29°C° 0 mm 2 mps 719 mmHg 23%
    20:00 +27°C° 0 mm 1 mps 720 mmHg 25%
    21:00 +26°C° 0 mm 2 mps 720 mmHg 27%
    22:00 +25°C° 0 mm 2 mps 720 mmHg 28%
    23:00 +24°C° 0 mm 2 mps 720 mmHg 30%

    16 December, Monday

    Time Temperature Precipitation Wind Pressure Humidity
    00:00 +24°C° 0 mm 2 mps 720 mmHg 28%
    01:00 +23°C° 0 mm 2 mps 720 mmHg 27%
    02:00 +21°C° 0 mm 2 mps 720 mmHg 26%
    03:00 +21°C° 0 mm 2 mps 720 mmHg 25%
    04:00 +21°C° 0 mm 2 mps 720 mmHg 24%
    05:00 +21°C° 0 mm 2 mps 720 mmHg 24%
    06:00 +24°C° 0 mm 2 mps 721 mmHg 22%
    07:00 +26°C° 0 mm 3 mps 721 mmHg 20%
    08:00 +27°C° 0 mm 3 mps 722 mmHg 17%
    09:00 +28°C° 0 mm 4 mps 722 mmHg 17%
    10:00 +30°C° 0 mm 4 mps 722 mmHg 17%
    11:00 +32°C° 0 mm 5 mps 722 mmHg 17%
    12:00 +29°C° 0.2 mm 4 mps 722 mmHg 25%
    13:00 +27°C° 0.2 mm 3 mps 722 mmHg 34%
    14:00 +25°C° 0.2 mm 2 mps 722 mmHg 42%
    15:00 +26°C° 0 mm 2 mps 722 mmHg 40%
    16:00 +26°C° 0 mm 3 mps 721 mmHg 38%
    17:00 +27°C° 0 mm 3 mps 721 mmHg 36%
    18:00 +25°C° 0 mm 2 mps 721 mmHg 39%
    19:00 +24°C° 0 mm 1 mps 721 mmHg 43%
    20:00 +20°C° 0 mm 0 mps 721 mmHg 47%
    21:00 +22°C° 0 mm 1 mps 721 mmHg 47%
    22:00 +21°C° 0 mm 2 mps 722 mmHg 47%
    23:00 +21°C° 0 mm 3 mps 722 mmHg 48%

    17 December, Tuesday

    Time Temperature Precipitation Wind Pressure Humidity
    00:00 +21°C° 0 mm 3 mps 721 mmHg 45%
    01:00 +21°C° 0 mm 3 mps 721 mmHg 43%
    02:00 +21°C° 0 mm 2 mps 721 mmHg 41%
    03:00 +20°C° 0 mm 2 mps 721 mmHg 39%
    04:00 +20°C° 0 mm 2 mps 721 mmHg 37%
    05:00 +20°C° 0 mm 2 mps 721 mmHg 36%
    06:00 +24°C° 0 mm 2 mps 721 mmHg 32%
    07:00 +27°C° 0 mm 2 mps 722 mmHg 28%
    08:00 +30°C° 0 mm 2 mps 722 mmHg 24%
    09:00 +31°C° 0 mm 3 mps 722 mmHg 21%
    10:00 +34°C° 0 mm 3 mps 722 mmHg 19%
    11:00 +36°C° 0 mm 4 mps 721 mmHg 17%
    12:00 +36°C° 0 mm 4 mps 721 mmHg 15%
    13:00 +37°C° 0 mm 4 mps 720 mmHg 14%
    14:00 +39°C° 0 mm 5 mps 719 mmHg 13%
    15:00 +39°C° 0 mm 5 mps 719 mmHg 14%
    16:00 +38°C° 0 mm 6 mps 718 mmHg 15%
    17:00 +36°C° 0 mm 6 mps 718 mmHg 17%
    18:00 +34°C° 0 mm 5 mps 718 mmHg 20%
    19:00 +32°C° 0 mm 5 mps 718 mmHg 23%
    20:00 +29°C° 0 mm 5 mps 718 mmHg 27%
    21:00 +27°C° 0 mm 4 mps 719 mmHg 31%
    22:00 +26°C° 0 mm 4 mps 719 mmHg 35%
    23:00 +25°C° 0 mm 4 mps 719 mmHg 39%

    18 December, Wednesday

    Time Temperature Precipitation Wind Pressure Humidity
    00:00 +25°C° 0 mm 3 mps 719 mmHg 41%
    01:00 +25°C° 0 mm 3 mps 719 mmHg 42%
    02:00 +24°C° 0 mm 3 mps 719 mmHg 43%
    03:00 +24°C° 0 mm 3 mps 719 mmHg 44%
    04:00 +24°C° 0 mm 3 mps 719 mmHg 44%
    05:00 +24°C° 0 mm 3 mps 719 mmHg 45%
    06:00 +25°C° 0.1 mm 4 mps 719 mmHg 43%
    07:00 +27°C° 0.1 mm 5 mps 720 mmHg 42%
    08:00 +29°C° 0.1 mm 6 mps 720 mmHg 40%
    09:00 +32°C° 0 mm 6 mps 720 mmHg 36%
    10:00 +34°C° 0 mm 7 mps 720 mmHg 32%
    11:00 +35°C° 0 mm 7 mps 719 mmHg 28%
    12:00 +36°C° 0 mm 7 mps 719 mmHg 27%
    13:00 +38°C° 0 mm 7 mps 718 mmHg 25%
    14:00 +40°C° 0 mm 7 mps 717 mmHg 24%
    15:00 +39°C° 0 mm 7 mps 717 mmHg 24%
    16:00 +39°C° 0 mm 7 mps 716 mmHg 25%
    17:00 +38°C° 0 mm 7 mps 716 mmHg 26%
    18:00 +36°C° 0 mm 6 mps 716 mmHg 30%
    19:00 +34°C° 0 mm 6 mps 716 mmHg 34%
    20:00 +32°C° 0 mm 5 mps 716 mmHg 37%
    21:00 +30°C° 0 mm 4 mps 717 mmHg 42%
    22:00 +28°C° 0 mm 4 mps 717 mmHg 47%
    23:00 +27°C° 0 mm 3 mps 717 mmHg 52%
    Show more